Tracking 27097 objects as of 29-Mar-2023
HD Live streaming from Space Station
objects crossing your sky now

EKRAN 4

Track EKRAN 4 now!
EKRAN 4 is classified as:


NORAD ID: 11561
Int'l Code: 1979-087A
Perigee: 35,746.6 km
Apogee: 35,839.4 km
Inclination: 8.5 °
Period: 1,436.1 minutes
Semi major axis: 42163 km
RCS: 0.1995 m2 (medium)
Launch date: October 3, 1979
Source: Commonwealth of Independent States (former USSR) (CIS)
Launch site: TYURATAM MISSILE AND SPACE COMPLEX (TTMTR)
Your satellite tracking list
Your tracking list is empty




NASA's NSSDC Master Catalog

Two Line Element Set (TLE):
1 11561U 79087A   23087.72361994  .00000084  00000-0  00000-0 0  9998
2 11561   8.4905 297.6901 0011001 131.5382  69.6065  1.00274413 35576
Source of the keplerian elements: AFSPC